Regional Weather Roundup
Issued by NWS

Home | Current Version | Previous Version | Graphics & Text | Print | Product List | Glossary On
Versions: 1 2 3 4 5 6 7 8 9 10 11 12 13 14 15 16 17 18 19 20 21 22 23 24 25 26 27 28 29 30 31 32 33 34 35 36 37 38 39 40 41 42 43 44 45 46 47 48 49 50
000
ASUS45 KPSR 231310
RWRAZ

ARIZONA REGIONAL HOURLY WEATHER ROUNDUP
NATIONAL WEATHER SERVICE PHOENIX AZ
600 AM MST SUN NOV 23 2014

NOTE: FAIR INDICATES FEW OR NO CLOUDS BELOW 12,000 FEET WITH NO
SIGNIFICANT WEATHER AND/OR OBSTRUCTIONS TO VISIBILITY.

AZZ001>003-036-231400-
NORTHWEST ARIZONA

CITY           SKY/WX    TMP DP  RH WIND       PRES   REMARKS
BULLHEAD CITY  CLEAR     63  32  31 N15       30.08R
KINGMAN        CLEAR     49  18  29 N12       30.10R
$$

AZZ004>008-015-016-018-231400-
NORTH CENTRAL ARIZONA

CITY           SKY/WX    TMP DP  RH WIND       PRES   REMARKS
GRAND CANYON   PTCLDY    34  21  59 W8        30.04R WCI  27
PRESCOTT       PTCLDY    44  26  49 NW15      30.04R
FLAGSTAFF      PTCLDY    35  24  64 NW9G16    30.02R WCI  28
PAYSON         PTCLDY    39  25  56 CALM      30.03R
$$

AZZ009>014-017-231400-
NORTHEAST ARIZONA

CITY           SKY/WX    TMP DP  RH WIND       PRES   REMARKS
WINSLOW        CLEAR     40  24  53 W10       29.97R WCI  33
SAINT JOHNS    CLEAR     42  24  49 W16       29.93R
SHOW LOW       CLEAR     36  19  51 SW14      30.01S WCI  27
$$

AZZ023-231400-
GREATER PHOENIX AREA

CITY           SKY/WX    TMP DP  RH WIND       PRES   REMARKS
PHOENIX        PTCLDY    50  32  50 E8        29.96R
BUCKEYE          N/A     41  25  52 N6        29.98R
LUKE AFB       PTCLDY    45  30  57 N6        29.93S
DEER VALLEY    CLEAR     45  28  51 CALM      29.96R
SCOTTSDALE     CLEAR     48  33  56 CALM      29.98R
MESA-GATEWAY   PTCLDY    45  28  53 E5        29.99R
CHANDLER       CLEAR     45  30  57 CALM      29.97
$$

AZZ027-028-231400-
SOUTHWEST MARICOPA COUNTY AND PINAL COUNTY

CITY           SKY/WX    TMP DP  RH WIND       PRES   REMARKS
CASA GRANDE    CLEAR     43  25  49 MISG      29.97R
$$

AZZ503-504-507>509-231400-
SOUTHEAST ARIZONA

CITY           SKY/WX    TMP DP  RH WIND       PRES   REMARKS
TUCSON         CLEAR     43  29  57 CALM      30.01R
DAVIS-MONTHAN  CLEAR     44  29  57 SE3       30.00R
RYAN FIELD       N/A    N/A N/A N/A CALM      30.00
NOGALES        CLEAR     36  29  75 SE5       30.02S WCI  32
SIERRA VISTA   PTCLDY    45  27  49 CALM      30.01R
DOUGLAS        PTCLDY    35  25  66 SE6       30.02R WCI  30
SAFFORD        CLEAR     39  22  50 E5        29.95R
$$

AZZ020-021-025-026-031-231400-
SOUTHWEST ARIZONA

CITY           SKY/WX    TMP DP  RH WIND       PRES   REMARKS
YUMA           MOCLDY    55  44  66 CALM      29.98R
$$

CAZ031-033-041-043-047-048-061-231400-
SOUTHERN CALIFORNIA

CITY           SKY/WX    TMP DP  RH WIND       PRES   REMARKS
DOWNTOWN L.A.  PTCLDY    58  54  86 CALM      30.05R
L.A. AIRPORT   PTCLDY    57  51  80 E5        30.06R
SAN DIEGO      PTCLDY    57  51  80 CALM      30.05R
BURBANK        PTCLDY    62  40  44 N9        30.07R
ONTARIO        PTCLDY    50  48  93 CALM      30.07R FOG
RIVERSIDE      CLEAR     52  48  86 NE6       30.07R
PALM SPRINGS   PTCLDY    56  40  55 NW9       30.05R
EL CENTRO NAS  CLEAR     53  46  77 CALM      29.99R
IMPERIAL       CLEAR     53  45  74 CALM      29.98R
BLYTHE         CLEAR     55  36  48 CALM      30.00R
NEEDLES        CLEAR     57  29  34 S6        30.07R
$$

NVZ020-UTZ003-231400-
SOUTHERN NEVADA-UTAH

CITY           SKY/WX    TMP DP  RH WIND       PRES   REMARKS
LAS VEGAS      CLEAR     56  17  21 NW23G33   30.11R
SALT LAKE CITY CLOUDY    33  30  88 N10       30.10R WCI  25
$$

NMZ009-TXZ055-231400-
NEW MEXICO-WEST TEXAS

CITY           SKY/WX    TMP DP  RH WIND       PRES   REMARKS
ALBUQUERQUE    PTCLDY    44  21  40 W18       29.81R
EL PASO        PTCLDY    49  22  34 SE9       29.87R
$$


........................KEY........................
SKY/WX - SKY CONDITION/WEATHER
TMP    - TEMPERATURE IN FAHRENHEIT
DP     - DEW POINT IN FAHRENHEIT
RH     - RELATIVE HUMIDITY IN PERCENT
WIND   - DIRECTION AND SPEED IN MILES PER HOUR (MPH)
VRB    - VARIABLE WIND DIRECTION
PRES   - MEAN SEA LEVEL PRESSURE IN INCHES OF MERCURY
         F - FALLING PRESSURE   R - RISING PRESSURE
         S - STEADY PRESSURE
VSB    - VISIBILITY IN MILES
HX     - HEAT INDEX IN FAHRENHEIT
WCI    - WIND CHILL INDEX IN FAHRENHEIT
TC     - TEMPERATURE IN CELSIUS WHICH IS ALSO KNOWN AS
         TEMPERATURE IN CENTIGRADE
AFB    - AIR FORCE BASE
         LUKE AFB IS LUKE AIR FORCE BASE
         DAVIS-MONTHAN IS DAVIS-MONTHAN AIR FORCE BASE
NAS    - NAVAL AIR STATION
         EL CENTRO NAS IS EL CENTRO NAVAL AIR STATION
N/A    - NOT AVAILABLE



USA.gov is the U.S. government's official web portal to all federal, state and local government web resources and services.